Theta_e
292 291 291 290 289 288 287 287 287 289 289 287 287 287 287 288 289 288 290 289 288 288 288 288 289 289 290 296 297 297 299 300 303 309 310 312 312 312
290 290 289 288 287 287 287 286 285 285 288 285 285 285 285 286 286 287 288 288 288 287 287 287 288 290 289 292 295 296 296 296 300 302 307 310 311 309
288 288 287 287 286 286 285 284 284 284 284 284 283 284 284 285 285 286 287 288 288 287 286 287 288 289 290 290 294 294 296 296 296 299 304 308 310 308
287 286 286 286 285 285 284 284 283 283 283 283 283 283 284 284 285 286 287 287 287 287 285 285 286 288 289 290 291 294 293 295 295 300 304 305 308 307
286 286 285 284 284 284 283 283 282 282 282 282 282 282 282 283 284 285 286 286 286 286 285 284 284 286 288 290 290 292 293 293 295 295 298 305 306 306
285 284 283 283 282 282 282 282 282 282 281 281 281 282 282 282 283 284 285 286 286 286 285 284 284 285 288 290 290 291 292 292 294 294 296 297 301 304
282 281 280 280 280 280 280 280 280 280 280 281 281 281 282 282 282 283 284 284 285 285 285 285 286 286 288 288 290 292 291 292 293 294 294 294 294 294
280 280 279 279 279 279 279 279 279 280 281 281 281 282 282 282 282 283 283 283 285 285 285 285 285 286 287 287 286 287 292 292 292 293 292 291 291 291
279 279 279 279 279 279 279 280 281 281 281 281 282 281 281 282 282 282 283 283 283 283 284 284 285 285 285 286 286 285 286 289 292 292 292 292 291 290
279 279 279 279 279 279 280 280 280 280 281 281 282 282 282 282 282 282 282 283 283 283 283 283 284 285 285 285 284 286 285 286 288 291 292 292 292 292
279 279 278 278 278 279 279 280 279 279 280 280 280 281 281 281 281 282 282 283 284 284 283 283 284 284 285 285 285 283 284 286 285 287 290 291 293 292
279 278 278 277 278 278 278 279 279 279 279 279 280 281 282 282 281 281 282 282 283 285 283 284 284 284 285 285 284 285 284 283 286 286 286 289 290 291
278 277 277 277 277 277 277 278 278 277 278 279 279 280 281 281 282 283 282 282 282 283 283 282 283 284 284 285 285 285 285 285 284 285 285 286 288 289
278 276 276 276 276 275 276 276 276 276 277 278 279 280 280 281 281 282 282 282 282 283 283 282 283 284 284 285 285 286 286 286 285 285 286 286 285 285
277 275 274 274 274 275 274 275 275 275 276 277 278 278 279 279 280 282 282 283 283 283 282 282 283 284 284 285 286 286 286 286 286 287 286 287 287 288
276 274 273 273 273 274 274 274 274 273 274 275 276 277 278 279 281 281 283 284 285 285 284 284 283 283 285 285 285 285 286 287 286 286 287 287 287 288
275 274 274 273 273 274 274 273 272 272 273 274 275 276 277 278 280 281 282 283 284 284 285 284 284 284 284 285 286 286 286 286 286 286 286 287 286 287
275 275 274 273 273 273 273 273 272 271 271 273 274 275 276 277 278 280 280 281 282 283 283 283 285 285 285 284 285 286 286 286 286 285 286 286 287 287
276 275 274 273 273 273 272 272 272 271 270 271 273 273 274 275 277 278 279 279 280 281 282 282 284 286 288 288 284 283 285 284 284 285 285 285 286 286
276 275 275 274 273 273 272 271 271 270 270 270 271 272 272 274 276 276 277 277 278 279 280 281 282 282 284 285 285 283 282 282 283 284 284 283 283 283
277 276 275 274 274 273 272 271 270 270 269 269 270 271 271 272 274 274 275 275 275 277 278 279 280 280 280 281 283 283 282 281 281 282 282 283 284 284
278 277 276 275 274 273 272 271 271 271 270 270 269 270 270 271 272 273 274 275 275 275 276 277 279 280 281 282 283 282 283 281 281 281 281 281 283 285
278 277 276 275 274 273 272 272 271 271 270 269 269 270 270 271 271 272 273 273 273 274 275 276 278 279 280 281 281 282 281 282 281 282 281 281 280 280
Wind_Speed
13 14 12 11 9 10 11 12 15 14 15 29 29 23 23 23 24 25 22 19 19 17 19 17 17 20 20 15 18 7 5 6 9 17 21 22 21 20
11 12 11 11 12 13 15 16 18 22 15 26 28 28 27 27 26 25 24 22 19 19 21 19 16 16 18 15 11 17 11 12 8 9 22 23 24 19
11 11 13 14 17 18 18 19 18 19 19 29 27 27 27 26 26 24 23 22 22 20 16 15 14 14 16 16 15 7 16 13 15 12 17 23 27 19
10 12 17 19 20 20 19 20 19 21 23 27 28 27 25 25 24 23 20 22 20 19 18 17 15 14 15 17 14 15 7 14 17 22 12 22 25 24
13 17 19 19 21 21 22 23 22 21 22 24 29 27 26 22 22 21 22 22 20 18 18 18 16 16 15 17 16 11 11 11 18 14 6 19 21 26
15 16 18 18 20 22 22 22 21 20 21 24 26 25 23 21 20 19 19 18 17 17 16 17 16 13 11 12 18 15 13 9 10 13 13 4 20 29
15 16 17 19 20 19 20 21 21 22 21 21 22 22 21 19 18 17 16 16 16 16 16 14 10 9 8 6 3 14 15 10 12 11 8 6 7 14
17 18 17 15 15 18 18 18 18 20 22 22 22 21 22 23 19 18 17 16 10 12 11 11 7 9 9 8 6 2 8 16 11 13 10 10 8 4
16 17 16 16 16 16 17 22 21 20 22 24 24 24 23 19 17 18 17 17 19 17 13 17 13 14 11 11 15 8 5 7 13 13 16 18 14 13
15 15 16 17 16 17 22 21 18 18 19 17 19 22 22 20 19 20 20 20 17 16 15 13 14 15 12 10 11 18 11 8 8 11 17 17 18 20
15 16 15 16 16 20 20 19 19 19 16 19 20 21 21 21 20 18 18 16 13 15 11 12 13 12 12 14 12 13 17 17 12 12 11 15 20 21
16 15 14 15 18 19 19 18 18 19 21 20 18 16 13 14 15 16 17 17 18 6 10 11 11 7 5 5 8 11 15 20 21 18 17 16 16 15
16 17 15 16 18 17 16 13 17 19 17 16 15 14 13 12 11 10 12 15 17 20 14 9 10 7 7 4 2 3 5 12 20 20 21 21 22 21
15 15 15 17 16 15 13 15 15 14 14 14 14 14 14 14 13 13 13 14 15 18 11 12 10 10 8 4 4 1 4 5 11 17 15 17 21 24
13 15 14 15 15 11 13 12 12 12 13 14 14 15 15 15 15 13 12 10 13 14 15 17 16 12 10 6 2 2 3 5 6 10 13 12 12 15
13 12 11 12 12 10 11 11 11 11 11 12 14 15 14 15 14 15 11 9 3 6 11 16 17 16 12 10 7 6 5 2 5 6 7 9 10 11
13 9 9 10 11 11 11 11 12 13 12 12 14 15 15 15 15 15 14 11 10 8 5 1 9 12 12 8 7 6 5 6 5 6 5 7 8 8
9 9 9 9 10 11 11 12 11 13 12 12 12 13 14 14 15 14 13 13 12 11 11 9 1 7 6 3 4 3 4 5 5 7 8 8 11 10
8 8 8 8 9 9 10 10 12 12 12 10 11 12 13 12 13 12 12 12 11 11 10 10 10 6 4 3 3 2 2 2 1 6 7 9 8 6
9 9 8 8 8 8 9 9 11 11 11 11 10 11 12 11 12 12 12 12 12 10 9 7 7 8 6 3 3 2 2 2 1 3 4 4 7 8
10 10 8 8 8 8 8 7 8 10 11 10 9 10 11 11 10 10 10 11 11 10 9 8 8 6 3 1 1 1 1 3 3 2 2 1 2 3
13 12 10 8 8 8 7 8 8 8 9 9 9 9 9 9 9 9 10 10 11 10 10 8 8 4 3 3 0 1 3 2 1 1 2 2 1 1
14 12 11 10 9 9 8 7 7 7 8 8 8 8 9 9 9 8 8 8 9 9 10 9 7 4 4 3 2 1 1 3 1 1 2 2 1 1
Wind_Direction
295 299 293 291 283 285 293 292 296 299 298 303 300 297 294 294 288 293 286 287 299 307 313 314 320 326 342 298 287 293 217 207 251 221 217 212 198 198
294 291 285 287 288 291 294 290 286 287 293 297 296 297 294 292 288 287 281 279 288 299 302 304 304 307 319 321 277 261 261 226 248 242 231 209 199 198
290 289 289 292 294 294 293 290 288 288 290 295 295 297 295 293 290 286 274 273 279 291 293 291 299 293 295 311 270 255 229 241 225 258 255 208 196 196
291 296 296 298 297 297 296 294 291 289 290 293 297 296 297 297 290 286 277 271 278 283 287 286 285 285 287 278 302 248 259 222 218 227 243 208 198 194
300 300 301 302 301 302 300 296 293 290 289 291 294 297 295 290 295 287 280 273 272 278 287 291 287 279 278 269 265 272 225 238 222 230 279 198 196 180
306 305 305 303 304 304 301 297 297 293 292 290 290 294 294 296 286 289 287 271 267 274 282 287 289 266 276 271 251 254 221 247 223 233 242 132 154 168
315 314 310 306 304 301 300 299 300 296 293 287 287 289 291 293 292 289 282 288 283 276 279 282 290 255 258 293 309 231 246 236 231 221 200 215 223 140
320 318 318 318 315 310 305 299 293 294 292 290 288 285 292 285 288 282 281 283 282 279 275 276 290 278 261 263 274 267 201 234 233 213 206 167 192 180
323 322 321 319 318 316 312 305 300 296 291 290 289 282 281 288 291 289 282 270 270 274 276 278 280 279 267 260 259 261 244 195 207 228 211 207 194 192
324 322 318 318 318 318 318 316 315 313 306 300 297 279 279 279 279 276 281 287 269 267 261 268 270 269 271 257 256 250 250 229 206 194 211 217 220 214
326 321 319 319 318 323 322 319 319 316 315 311 306 301 285 278 274 277 270 268 263 260 244 248 267 270 273 267 257 248 240 243 226 213 197 202 207 208
327 323 323 325 323 327 327 326 321 327 323 319 315 313 311 291 283 263 261 259 261 271 242 247 269 260 257 250 249 234 229 224 227 230 216 203 194 190
324 325 326 329 329 330 330 327 334 328 323 322 321 317 315 311 306 283 256 243 249 250 250 240 261 244 244 269 246 235 212 222 218 218 218 219 214 207
319 321 324 327 329 329 329 327 331 338 331 330 330 330 326 320 311 301 288 259 244 247 248 227 236 234 234 235 239 222 214 211 204 206 205 214 222 225
313 315 319 327 332 336 336 338 345 345 341 338 336 332 327 322 321 319 307 270 251 246 243 233 229 233 227 234 237 208 201 181 182 186 198 205 209 209
322 324 327 334 342 342 349 352 351 348 345 340 337 336 337 344 346 349 347 348 287 252 249 246 236 229 228 228 234 232 233 182 164 172 174 183 195 196
326 331 336 346 351 352 353 354 357 357 356 352 348 349 350 353 356 0 6 9 25 16 23 13 222 222 223 221 217 217 204 214 214 181 182 192 195 197
322 329 334 339 344 345 346 349 353 356 353 351 353 353 353 353 356 3 10 11 10 15 21 16 351 171 176 203 225 219 192 214 211 200 205 219 215 208
305 313 316 327 329 334 338 343 343 345 347 349 351 352 352 353 358 1 5 7 5 1 7 9 21 16 182 163 108 161 169 129 174 186 203 205 221 204
281 291 300 309 316 320 329 335 339 343 346 347 349 351 353 353 354 358 2 1 355 352 354 3 17 18 18 27 28 99 125 113 151 173 184 213 230 235
274 275 280 290 298 305 311 320 328 335 340 342 344 348 351 355 352 352 348 351 350 350 344 348 338 329 296 325 253 176 170 177 147 126 136 148 171 174
265 266 270 275 281 292 298 307 317 328 337 341 341 343 345 350 348 348 351 348 351 343 334 329 336 339 225 247 92 348 169 160 177 146 140 128 49 167
259 259 261 264 272 281 288 292 302 312 327 332 335 339 342 344 346 345 346 348 347 347 349 349 358 18 41 33 25 52 123 140 103 126 111 187 179 165